Gainesville, GA

2:57 AM EDT on October 22, 2019 (GMT -0400)
Gilmer Memorial

Weather History for KGVL - August, 2019

Change the Weather History Date:

Wednesday, August 28, 2019

  Actual Average Record
Temperature  
Mean Temperature 79 °F 77 °F  
Max Temperature 90 °F 86 °F 96 °F (1959)
Min Temperature 67 °F 68 °F 50 °F (1942)
Cooling Degree Days 14 12  
Month to date cooling degree days 406 372  
Year to date cooling degree days 1479 1294  
Since 1 June cooling degree days 1143 1119  
Growing Degree Days 28 (Base 50)    
Moisture  
Dew Point 67 °F    
Average Humidity 66    
Maximum Humidity 100    
Minimum Humidity 31    
Precipitation  
Precipitation 0.00 in 0.11 in 1.55 in (1992)
Month to date precipitation 2.47 4.08  
Year to date precipitation 37.31 35.90  
Sea Level Pressure  
Sea Level Pressure 29.98 in    
Wind  
Wind Speed 7 mph (NW)    
Max Wind Speed 17 mph    
Max Gust Speed 23 mph    
Visibility 9 miles    
Events      
T = Trace of Precipitation, MM = Missing Value Source: NWS Daily Summary

Daily Weather History Graph

Daily Weather History Graph

Search for Another Location

Airport or City:

Astronomy

Aug. 28, 2019 Rise Set
Actual Time 7:05 AM EDT 8:06 PM EDT
Civil Twilight 6:39 AM EDT 8:32 PM EDT
Nautical Twilight 6:09 AM EDT 9:03 PM EDT
Astronomical Twilight 5:37 AM EDT 9:34 PM EDT
Moon 4:45 AM EDT (8/28) 7:11 PM EDT (8/28)
Length of Visible Light 13h 52m
Length of Day
13h 01m
Waning Crescent, 5% of the Moon is Illuminated
Aug 28
Waning Crescent
Aug 30
New
Sep 5
First Quarter
Sep 14
Full
Sep 21
Last Quarter

Hourly Weather History & Observations

Time (EDT) Temp. Heat Index Dew Point Humidity Pressure Visibility Wind Dir Wind Speed Gust Speed Precip Events Conditions
12:53 AM 68.0 °F - 68.0 °F 100% 29.98 in 8.0 mi NE 3.5 mph - 0.00 in   Clear
1:39 AM 68.0 °F - 68.0 °F 100% 30.00 in 7.0 mi Calm Calm - N/A   Partly Cloudy
1:53 AM 68.0 °F - 68.0 °F 100% 29.96 in 8.0 mi ENE 3.5 mph - N/A   Partly Cloudy
2:53 AM 68.0 °F - 68.0 °F 100% 29.94 in 7.0 mi Calm Calm - N/A   Partly Cloudy
3:11 AM 68.0 °F - 68.0 °F 100% 29.98 in 10.0 mi Calm Calm - N/A   Mostly Cloudy
3:53 AM 66.9 °F - 66.9 °F 100% 29.94 in 8.0 mi Calm Calm - N/A   Mostly Cloudy
4:15 AM 68.0 °F - 68.0 °F 100% 29.98 in 9.0 mi Calm Calm - N/A   Mostly Cloudy
4:40 AM 66.9 °F - 66.9 °F 100% 29.97 in 9.0 mi Calm Calm - N/A   Scattered Clouds
4:53 AM 66.9 °F - 66.9 °F 100% 29.94 in 8.0 mi Calm Calm - N/A   Partly Cloudy
5:06 AM 66.9 °F - 66.9 °F 100% 29.98 in 8.0 mi Calm Calm - N/A   Mostly Cloudy
5:53 AM 69.1 °F - 69.1 °F 100% 29.94 in 10.0 mi Calm Calm - N/A   Overcast
6:11 AM 69.1 °F - 69.1 °F 100% 29.99 in 10.0 mi Calm Calm - N/A   Mostly Cloudy
6:26 AM 69.1 °F - 69.1 °F 100% 29.99 in 10.0 mi Calm Calm - N/A   Mostly Cloudy
6:51 AM 66.2 °F - 66.2 °F 100% 30.00 in 8.0 mi WSW 3.5 mph - N/A   Scattered Clouds
6:53 AM 66.9 °F - 66.9 °F 100% 29.96 in 8.0 mi WSW 4.6 mph - N/A   Partly Cloudy
7:10 AM 68.0 °F - 68.0 °F 100% 30.01 in 8.0 mi West 4.6 mph - N/A   Scattered Clouds
7:19 AM 68.0 °F - 68.0 °F 100% 30.00 in 6.0 mi WSW 5.8 mph - N/A   Mostly Cloudy
7:51 AM 69.8 °F - 69.8 °F 100% 30.01 in 7.0 mi West 4.6 mph - N/A   Partly Cloudy
7:53 AM 69.1 °F - 69.1 °F 100% 29.97 in 7.0 mi West 5.8 mph - N/A   Partly Cloudy
8:18 AM 70.0 °F - 70.0 °F 100% 30.01 in 9.0 mi West 6.9 mph - N/A   Mostly Cloudy
8:26 AM 70.0 °F - 70.0 °F 100% 30.01 in 8.0 mi West 6.9 mph - N/A   Mostly Cloudy
8:53 AM 70.0 °F - 70.0 °F 100% 29.97 in 6.0 mi West 6.9 mph - N/A   Overcast
9:00 AM 70.0 °F - 70.0 °F 100% 30.01 in 6.0 mi WNW 5.8 mph - N/A   Overcast
9:27 AM 73.0 °F - 71.1 °F 93% 30.01 in 10.0 mi WNW 6.9 mph - N/A   Mostly Cloudy
9:37 AM 73.0 °F - 71.1 °F 93% 30.01 in 10.0 mi WNW 5.8 mph - N/A   Scattered Clouds
9:53 AM 73.9 °F - 71.1 °F 91% 29.97 in 10.0 mi NW 5.8 mph - N/A   Partly Cloudy
10:53 AM 80.1 °F 83.2 °F 70.0 °F 71% 29.98 in 10.0 mi NNW 6.9 mph - N/A   Clear
11:53 AM 82.9 °F 87.0 °F 70.0 °F 65% 29.98 in 10.0 mi NW 11.5 mph - N/A   Clear
12:53 PM 84.9 °F 89.4 °F 70.0 °F 61% 29.97 in 10.0 mi NNW 9.2 mph - N/A   Partly Cloudy
1:53 PM 87.1 °F 89.9 °F 66.9 °F 51% 29.96 in 10.0 mi North 10.4 mph - N/A   Clear
2:53 PM 88.0 °F 89.3 °F 64.0 °F 45% 29.96 in 10.0 mi North 9.2 mph - N/A   Clear
3:53 PM 89.1 °F 88.8 °F 60.1 °F 38% 29.95 in 10.0 mi North 10.4 mph - N/A   Clear
4:53 PM 89.1 °F 87.1 °F 55.0 °F 31% 29.95 in 10.0 mi NNW 13.8 mph - N/A   Clear
5:53 PM 88.0 °F 85.9 °F 54.0 °F 31% 29.95 in 10.0 mi NW 13.8 mph - N/A   Clear
6:53 PM 84.9 °F 84.8 °F 60.1 °F 43% 29.96 in 10.0 mi NNW 11.5 mph - N/A   Clear
7:53 PM 82.0 °F 83.1 °F 63.0 °F 52% 29.96 in 10.0 mi NNW 8.1 mph - N/A   Clear
8:53 PM 78.1 °F - 63.0 °F 60% 29.98 in 10.0 mi NW 5.8 mph - N/A   Clear
9:53 PM 75.9 °F - 63.0 °F 64% 30.00 in 10.0 mi NNW 6.9 mph - N/A   Clear
10:53 PM 73.0 °F - 63.0 °F 71% 30.01 in 10.0 mi WNW 5.8 mph - N/A   Clear
11:53 PM 72.0 °F - 64.0 °F 76% 30.01 in 10.0 mi NW 6.9 mph - N/A   Clear